Location: *
(53.9002°N, 27.5624°E)
Time: 00:06:13
(UTC+00:00)

BREEZE-M DEB (TANK) - Pass Details

Date: 12 November 2019
Orbit: 309 x 13120 km, 49.6° (Epoch: 07 December)

Event Time Altitude Azimuth Distance (km) Brightness Sun altitude
Rises 15:01:54 0° 248° (WSW) 4,818 10.4 -6.9°
Reaches altitude 10° 15:06:30 10° 242° (WSW) 2,668 8.0 -7.5°
Maximum altitude 15:11:10 36° 176° (S) 778 3.7 -8.2°
Drops below altitude 10° 15:13:31 10° 105° (ESE) 1,326 4.3 -8.5°
Enters shadow 15:13:39 - 103° (ESE) 1,385 4.4 -8.5°
